Terminal Aerodrome Forecast
Issued by NWS

Home | Current Version | Previous Version | Text Only | Print | Product List | Glossary On
Versions: 1 2 3 4 5 6 7 8 9 10 11 12 13 14 15 16 17 18 19 20 21 22 23 24 25 26 27 28 29 30 31 32 33 34 35 36 37 38 39 40 41 42 43 44 45 46 47 48 49 50
000
FTAK31 PANC 270609 AAA
TAFASN
TAF AMD
PASN 270609Z 2706/2806 15010KT P6SM OVC060
      TEMPO 2706/2709 4SM BR SCT060
     FM270900 17008KT P6SM OVC025
     FM271600 17010KT 3SM -RA BR OVC015
     FM280200 18010KT P6SM OVC015=

USA.gov is the U.S. government's official web portal to all federal, state and local government web resources and services.